Location: Blanot
(47.1713°N, 4.2340°E)
Time: 04:29:26
(UTC+00:00)

CZ-4C R/B - Pass Details

Date: 14 July 2020
Orbit: 463 x 636 km, 98.0° (Epoch: 06 August)

Event Time Altitude Azimuth Distance (km) Brightness Sun altitude
Exits shadow 01:11:26 33° 145° (SE) 901 4.1 -18.7°
Maximum altitude 01:12:59 65° 74° (ENE) 572 3.4 -18.6°
Drops below altitude 10° 01:16:38 10° 352° (N) 1,713 6.7 -18.4°
Sets 01:18:41 0° 350° (N) 2,578 7.7 -18.3°
